EW4287 Shelton CT US current weather conditions

sailwx.info

Last reported at 2020-Jan-27 10:45 UTC.
Time now 2020-Jan-27 11:39 UTC

Location: N 41°18' W 073°07'.
View on Google Maps.

See reports from other nearby stations

  
Tides and Currents Weather Stations Pressure Air Temp Water Temp Dewpoint Dewpoint Depression Visibility Wind Speed Wind Dir Waves Ship Positions
date/time (UTC)wind fromknots sea level pressurealtimeterstation pressurevisibilityair tempwater tempwave heightnotes
2020-Jan-27 10:45
2020-Jan-27 10:32
2020-Jan-27 10:17
2020-Jan-27 09:45
2020-Jan-27 09:30
2020-Jan-27 09:15
2020-Jan-27 09:00
2020-Jan-27 08:47
2020-Jan-27 08:16 248 0.6
2020-Jan-27 08:02 231 -0.0
2020-Jan-27 07:48 239 -0.0
2020-Jan-27 07:16 240 -0.0
2020-Jan-27 07:01 236 -0.0
2020-Jan-27 06:46 228 -0.0
2020-Jan-27 06:15 234 0.6
2020-Jan-27 06:00 235 1.1
2020-Jan-27 05:45 235 1.7
2020-Jan-27 05:30 211 2.2
2020-Jan-27 05:01 248 2.8
2020-Jan-27 04:48 257 2.8
2020-Jan-27 04:31 237 2.8
2020-Jan-27 04:02 259 3.3
2020-Jan-27 03:46 252 3.3
2020-Jan-27 03:31 236 3.3
2020-Jan-27 03:01 243 3.3
2020-Jan-27 02:47 242 3.3
2020-Jan-27 02:31 229 3.3
2020-Jan-27 02:00 226 3.3
2020-Jan-27 01:45 243 3.3
2020-Jan-27 01:31 236 3.3
2020-Jan-27 01:18 244 3.3
2020-Jan-27 00:47 214 3.3
2020-Jan-27 00:32 239 3.3
2020-Jan-27 00:01 235 3.3
2020-Jan-26 23:45 242 2.8
2020-Jan-26 23:30 240 2.8
2020-Jan-26 23:15 228 2.2
2020-Jan-26 22:47 235 3.3
2020-Jan-26 22:31 238 3.3
2020-Jan-26 22:17 227 3.9
2020-Jan-26 21:45 250 4.4
2020-Jan-26 21:30 231 5.0
2020-Jan-26 21:16 259 5.0
2020-Jan-26 21:01 236 5.6
2020-Jan-26 20:47 265 5.6
2020-Jan-26 20:16 233 5.6
2020-Jan-26 20:02 235 5.6
2020-Jan-26 19:47 256 5.6
2020-Jan-26 19:15 234 6.7
2020-Jan-26 19:00 304 6.1
2020-Jan-26 18:45 201 6.7
2020-Jan-26 18:30 124 0 gusting 2 6.1
2020-Jan-26 18:01 313 5.6
2020-Jan-26 17:47 302 5.6
2020-Jan-26 17:32 290 5.6
2020-Jan-26 17:00 295 6.7
2020-Jan-26 16:45 187 6.7
2020-Jan-26 16:31 246 6.1
2020-Jan-26 16:17 240 6.7
2020-Jan-26 16:04 275 6.1
2020-Jan-26 15:32 019 6.1
2020-Jan-26 15:16 259 5.6
2020-Jan-26 15:02 280 5.0
2020-Jan-26 14:31 241 3.9
2020-Jan-26 14:16 228 2.8
2020-Jan-26 14:02 247 2.8
2020-Jan-26 13:30 232 1.7
2020-Jan-26 13:15 232 1.1
2020-Jan-26 13:00 232 0.6
2020-Jan-26 12:45
2020-Jan-26 12:15
2020-Jan-26 12:03
2020-Jan-26 11:47
2020-Jan-26 11:15
2020-Jan-26 11:00
2020-Jan-26 10:45
2020-Jan-26 10:32
2020-Jan-26 10:16
2020-Jan-26 09:45
2020-Jan-26 09:30
2020-Jan-26 09:15
2020-Jan-26 09:00
2020-Jan-26 08:47
2020-Jan-26 08:32
2020-Jan-26 08:15
2020-Jan-26 08:00
2020-Jan-26 07:31
2020-Jan-26 07:15
2020-Jan-26 07:00
2020-Jan-26 06:32
2020-Jan-26 06:17
2020-Jan-26 06:01
2020-Jan-26 05:30 231 4.4
2020-Jan-26 05:15 252 4.4
2020-Jan-26 05:02 221 4.4
2020-Jan-26 04:46 250 4.4
2020-Jan-26 04:32 227 5.0
2020-Jan-26 04:02 214 6.1
2020-Jan-26 03:47 108 6.1
2020-Jan-26 03:31 243 6.7
2020-Jan-26 03:01 224 7.2
2020-Jan-26 02:46 241 7.2
2020-Jan-26 02:31 252 7.2
2020-Jan-26 02:00 274 7.2
2020-Jan-26 01:45 075 6.7
2020-Jan-26 01:30 075 6.7
2020-Jan-26 01:15 075 6.7
2020-Jan-26 00:45 075 6.7
2020-Jan-26 00:31 075 6.7
2020-Jan-26 00:16 075 7.2
2020-Jan-25 23:45 091 7.2
2020-Jan-25 23:30 104 7.2
2020-Jan-25 23:16 076 7.8
2020-Jan-25 22:45 321 0 gusting 6 7.8
2020-Jan-25 22:30 113 7.2
2020-Jan-25 22:15 069 0 gusting 4 6.7
2020-Jan-25 21:45 055 2 gusting 6 7.2
2020-Jan-25 21:30 086 1 gusting 5 6.7
2020-Jan-25 21:15 070 1 gusting 5 6.7
2020-Jan-25 20:46 070 1 gusting 4 6.7
2020-Jan-25 20:31 094 1 gusting 6 6.7
2020-Jan-25 20:15 072 2 gusting 5 6.7
2020-Jan-25 20:00 085 1 gusting 5 6.7
2020-Jan-25 19:45 062 0 gusting 3 6.7
2020-Jan-25 19:30 054 6.1
2020-Jan-25 19:15 053 0 gusting 4 6.1
2020-Jan-25 19:00 067 5.6
2020-Jan-25 18:45 057 0 gusting 2 5.0
2020-Jan-25 18:32 075 0 gusting 2 4.4
2020-Jan-25 18:17 070 0 gusting 2 4.4
2020-Jan-25 18:02 064 4.4
2020-Jan-25 17:47 064 3.9
2020-Jan-25 17:31 065 3.9
2020-Jan-25 17:15 055 3.9
2020-Jan-25 17:00 064 3.3
2020-Jan-25 16:30 069 3.3
2020-Jan-25 16:15 036 2.8
2020-Jan-25 16:00 060 2.8
2020-Jan-25 15:45 068 2.8
2020-Jan-25 15:30 066 2.8
2020-Jan-25 15:15 025 2.8
2020-Jan-25 15:02 070 2.8
2020-Jan-25 14:47 035 2.8
2020-Jan-25 14:31 056 2.8
2020-Jan-25 14:17 061 2.2
2020-Jan-25 14:02 052 2.2
2020-Jan-25 13:47 061 2.2
2020-Jan-25 13:31
2020-Jan-25 13:15
2020-Jan-25 12:46
2020-Jan-25 12:30
2020-Jan-25 12:16
2020-Jan-25 11:45
2020-Jan-25 11:31